Showing default

USA 254, 40100

Orbit data source: Space-Track

USA 254, 40100 is a payload satellite owned by USAF AFSPC (US) in GEO that was launched on Mon, 28 Jul 2014 UTC via a DELTA 4M+(4,2) launch vehicle from the Air Force Eastern Test Range (AFETR). Payload-class satellites include a variety of spacecraft equipped with specific instruments for various scientific and technological missions. These include communications satellites like Starlink; space stations such as the ISS; scientific satellites like the Hubble; Earth observation satellites from companies like Planet Labs, Umbra, and HawkEye 360; GPS; miniature CubeSats for education and research; and military/defense satellites.

Not visible in the next 10 days
Identifier
40100, 2014-043B
Orbit
GEO
Country
Flag of USUS
Related business
Manufacturer
OSC
Mission
Non-operational Defense Classified
Bus & Motor
GEOSTAR-1, AOCS
Mass
500 kg wet, 500 kg dry
Launch date (UTC)
2014-07-28 (12 years ago)
Launch vehicle
DELTA 4M+(4,2)
Launch site
Air Force Eastern Test Range (AFETR)
Object type
Payload
Rocket body
Debris
Shape & HBR
Box + 2 Pan, 2.5 m
Radar Cross Section
7.621 m²

Expand to show TLE details & history
Last TLE update: 3 days ago

TLE from 3 days ago
0 USA 254
1 40100U 14043B   26170.65023890 -.00000300  00000-0  00000+0 0  9999
2 40100   4.7227  76.1264 0001868 292.5574 278.6464  0.99133136 27597
Epoch: 2026-06-19T15:36Z
TLE epoch observation values (Epoch: 2026-06-19T15:36:20.640Z)
Latitude
-2.46709°
Longitude
145.27883°
Altitude
36,107.53 km
Speed
3.063 km/s
True Right ascension
19h 08m 57s
True Declination
-2° 27' 53"
Sunlit
Object was in daylight at epoch
Visualization orbit readout
Latitude
Unknown
Longitude
Unknown
Altitude
Unknown
Speed
Unknown
Apparent Right ascension
Unknown
Apparent Declination
Unknown
Sunlit
N/A
Visualization observer readout
Local Sidereal Time
00:49:58
Azimuth
Unknown
Elevation
Unknown
Doppler factor
Unknown
Orbital elements
Apogee altitude
36,117.84 km
Perigee altitude
36,101.966 km
Semi-major axis
42,488.04 km
Eccentricity
0.00019
Inclination
4.7227°
RAAN
76.1264°
Arg. of periapsis
292.5574°
True anomaly
278.62524°
Mean anomaly
278.6464°
Eccentric anomaly
278.63582°
Mean motion
0.24782 °/min
Orbital period
1,452.64 mins
BSTAR
0
Loading maneuver chart data...
Computing Atmospheric mass density...
Loading historical data...
Loading historical data...
Loading historical data...
Loading historical data...
Loading historical data...
Loading historical data...
Loading historical data...
Other satellites on launch #43 in the year 2014 (2014-07-28 UTC)

Documentation

Showing up to 5 results
|